Location: Kitt Peak
(31.9639°N, 111.5992°W)
Time: 14:16:14
(UTC-07:00)

Tiangong 1 - Visible Passes

Search period start: 20 February 2018 00:00
Search period end: 02 March 2018 00:00
Orbit: 248 x 270 km, 42.8° (Epoch: 20 February)

Date Brightness Start Highest point End Pass type
(mag) Time Alt. Az. Time Alt. Az. Time Alt. Az.
20 Feb 1.6 06:32:17 11° W 06:34:10 25° SW 06:36:08 10° SSE visible
21 Feb 2.5 06:26:58 11° WSW 06:28:06 14° SW 06:29:22 10° S visible
27 Feb 4.2 20:11:59 10° WSW 20:11:59 10° WSW 20:11:59 10° WSW visible
28 Feb 3.6 20:04:13 10° W 20:04:50 15° WNW 20:04:50 15° WNW visible
01 Mar 3.2 19:56:19 10° WNW 19:57:19 16° NW 19:57:19 16° NW visible
